TimeAST,TemperatureF,Dew PointF,Humidity,Sea Level PressureIn,VisibilityMPH,Wind Direction,Wind SpeedMPH,Gust SpeedMPH,PrecipitationIn,Events,Conditions,WindDirDegrees,DateUTC
12:00 AM,80.6,77.0,89,29.92,6.2,ESE,12.7,-,N/A,,Partly Cloudy,120,2012-10-09 04:00:00
1:00 AM,80.6,75.2,84,29.92,6.2,ESE,8.1,-,N/A,,Partly Cloudy,120,2012-10-09 05:00:00
2:00 AM,81,76,80,29.90,16,ESE,11.5,,,,Partly Cloudy,120,2012-10-09 06:00:00
2:00 AM,80.6,77.0,89,29.89,6.2,ESE,9.2,-,N/A,,Scattered Clouds,120,2012-10-09 06:00:00
3:00 AM,80.6,77.0,89,29.89,6.2,ESE,10.4,-,N/A,,Scattered Clouds,120,2012-10-09 07:00:00
4:00 AM,80.6,77.0,89,29.89,6.2,ESE,12.7,-,N/A,,Scattered Clouds,110,2012-10-09 08:00:00
5:00 AM,81,76,80,29.91,16,ESE,10.4,,,,Partly Cloudy,120,2012-10-09 09:00:00
5:00 AM,80.6,75.2,84,29.89,6.2,ESE,10.4,-,N/A,,Scattered Clouds,120,2012-10-09 09:00:00
6:00 AM,80.6,75.2,84,29.89,6.2,ESE,10.4,-,N/A,,Scattered Clouds,120,2012-10-09 10:00:00
7:00 AM,82.4,75.2,79,29.92,6.2,ESE,11.5,-,N/A,,Scattered Clouds,120,2012-10-09 11:00:00
8:00 AM,83,75,71,29.94,16,ESE,15.0,,,,Partly Cloudy,120,2012-10-09 12:00:00
8:00 AM,84.2,75.2,74,29.95,6.2,ESE,15.0,-,N/A,,Scattered Clouds,120,2012-10-09 12:00:00
9:00 AM,86.0,75.2,70,29.95,6.2,ESE,13.8,-,N/A,,Mostly Cloudy,120,2012-10-09 13:00:00
10:00 AM,87.8,75.2,66,29.95,6.2,SE,17.3,-,N/A,,Scattered Clouds,130,2012-10-09 14:00:00
11:00 AM,90,74,52,29.94,16,SE,18.4,,,,Scattered Clouds,130,2012-10-09 15:00:00
11:00 AM,89.6,73.4,59,29.95,6.2,SE,18.4,-,N/A,,Partly Cloudy,130,2012-10-09 15:00:00
12:00 PM,91.4,71.6,52,29.92,6.2,ESE,17.3,-,N/A,,Scattered Clouds,120,2012-10-09 16:00:00
1:00 PM,91.4,77.0,63,29.89,6.2,ESE,15.0,-,N/A,,Partly Cloudy,120,2012-10-09 17:00:00
2:00 PM,87.8,77.0,70,29.86,6.2,East,13.8,-,N/A,,Partly Cloudy,100,2012-10-09 18:00:00
3:00 PM,86.0,75.2,70,29.86,6.2,East,15.0,-,N/A,,Scattered Clouds,90,2012-10-09 19:00:00
4:00 PM,87.8,71.6,58,29.86,6.2,East,12.7,-,N/A,,Partly Cloudy,100,2012-10-09 20:00:00
5:00 PM,86,76,65,29.84,25,East,12.7,,,,Scattered Clouds,100,2012-10-09 21:00:00
5:00 PM,86.0,75.2,70,29.83,6.2,East,11.5,-,N/A,,Partly Cloudy,100,2012-10-09 21:00:00
6:00 PM,82.4,75.2,79,29.86,6.2,East,10.4,-,N/A,,Partly Cloudy,100,2012-10-09 22:00:00
7:00 PM,82.4,77.0,84,29.86,6.2,East,10.4,-,N/A,,Partly Cloudy,80,2012-10-09 23:00:00
8:00 PM,82,76,78,29.88,19,East,12.7,,,,Scattered Clouds,80,2012-10-10 00:00:00
8:00 PM,82.4,75.2,79,29.89,6.2,East,11.5,-,N/A,,Partly Cloudy,80,2012-10-10 00:00:00
9:00 PM,82.4,77.0,84,29.92,6.2,East,10.4,-,N/A,,Partly Cloudy,90,2012-10-10 01:00:00
10:00 PM,82.4,77.0,84,29.92,6.2,East,11.5,-,N/A,,Partly Cloudy,90,2012-10-10 02:00:00
11:00 PM,82,77,79,29.94,19,East,8.1,,,,Scattered Clouds,100,2012-10-10 03:00:00
11:00 PM,82.4,77.0,84,29.95,6.2,East,10.4,-,N/A,,Partly Cloudy,90,2012-10-10 03:00:00